Regional Weather Roundup
Issued by NWS

Home | Current Version | Previous Version | Graphics & Text | Print | Product List | Glossary Off
Versions: 1 2 3 4 5 6 7 8 9 10 11 12 13 14 15 16 17 18 19 20 21 22 23 24 25 26 27 28 29 30 31 32 33 34 35 36 37 38 39 40 41 42 43 44 45 46 47 48 49 50

000
ASUS43 KMKX 311811
RWRWI

WISCONSIN REGIONAL WEATHER ROUNDUP
NATIONAL WEATHER SERVICE MILWAUKEE/SULLIVAN WI
100 PM CDT FRI JUL 31 2015

NOTE: "FAIR" INDICATES FEW OR NO CLOUDS BELOW 12,000 FEET WITH NO
SIGNIFICANT WEATHER AND/OR OBSTRUCTIONS TO VISIBILITY.

WIZ001-002-006>008-014>016-023>028-311900-
NORTHWEST WISCONSIN

CITY           SKY/WX    TMP DP  RH WIND       PRES   REMARKS
SUPERIOR ARPT  PTSUNNY   75  55  50 NW15      29.96F
6HR MIN TEMP:  63; 6HR MAX TEMP:  76;

ASHLAND        PTSUNNY   76  55  48 W12G23    29.95F
6HR MIN TEMP:  64; 6HR MAX TEMP:  77;

HAYWARD        PTSUNNY   75  50  41 W9G21     30.00S
6HR MIN TEMP:  64; 6HR MAX TEMP:  76;

SIREN          PTSUNNY   76  51  42 NW16      30.02F
6HR MIN TEMP:  62; 6HR MAX TEMP:  76;

CUMBERLAND     MOSUNNY   72  50  46 NW18G30   30.03S
RICE LAKE      MOSUNNY   74  54  48 W17       30.03F
6HR MIN TEMP:  61; 6HR MAX TEMP:  74;

CHETEK         MOSUNNY   76  56  48 W7G16     30.02S
6HR MIN TEMP:  64; 6HR MAX TEMP:  76;

LADYSMITH      MOSUNNY   76  51  41 W18       30.01S
6HR MIN TEMP:  63; 6HR MAX TEMP:  76;

EAU CLAIRE     MOSUNNY   79  52  38 NW21G28   30.01F
6HR MIN TEMP:  64; 6HR MAX TEMP:  79;

MENOMONIE      MOSUNNY   79  51  37 W18       30.03F
6HR MIN TEMP:  66; 6HR MAX TEMP:  79;

NEW RICHMOND   SUNNY     76  51  40 W16G22    30.05S
6HR MIN TEMP:  62; 6HR MAX TEMP:  76;

OSCEOLA        MOSUNNY   76  52  43 NW10G21   30.06F
6HR MIN TEMP:  64; 6HR MAX TEMP:  76;

$$

WIZ003>005-009-010-017-018-311900-
NORTH CENTRAL WISCONSIN

CITY           SKY/WX    TMP DP  RH WIND       PRES   REMARKS
MANITOWISH WTR PTSUNNY   73  52  49 NW10G25   29.94F
6HR MIN TEMP:  61; 6HR MAX TEMP:  73;

ARBOR VITAE    MOSUNNY   75  53  46 W17G25    29.95S
6HR MIN TEMP:  63; 6HR MAX TEMP:  75;

WOODRUFF       MOSUNNY   75  53  46 W17G25    29.95S
6HR MIN TEMP:  63; 6HR MAX TEMP:  75;

RHINELANDER    PTSUNNY   75  52  44 NW13G20   29.95F
6HR MIN TEMP:  61; 6HR MAX TEMP:  76;

EAGLE RIVER    MOSUNNY   73  48  41 NW21G28   29.93F
6HR MIN TEMP:  61; 6HR MAX TEMP:  74;

LAND O LAKES   MOSUNNY   72  49  44 NW15G23   29.94S
6HR MIN TEMP:  62; 6HR MAX TEMP:  74;

PHILLIPS       PTSUNNY   73  53  49 NW13G23   29.97S
6HR MIN TEMP:  61; 6HR MAX TEMP:  74;

TOMAHAWK       MOSUNNY   73  52  46 W18G25    29.96F
6HR MIN TEMP:  60; 6HR MAX TEMP:  74;

MEDFORD        MOSUNNY   74  53  48 W16G25    29.99S
6HR MIN TEMP:  60; 6HR MAX TEMP:  74;

MERRILL        NOT AVBL
$$

WIZ029-030-035-036-043>047-311900-
CENTRAL WISCONSIN

CITY           SKY/WX    TMP DP  RH WIND       PRES   REMARKS
WAUSAU         MOSUNNY   76  49  38 NW12G22   29.95F
6HR MIN TEMP:  64; 6HR MAX TEMP:  78;

MOSINEE        PTSUNNY   75  52  43 NW15G24   29.98F
MARSHFIELD     MOSUNNY   78  51  38 NW16G31   29.99F
6HR MIN TEMP:  64; 6HR MAX TEMP:  79;

STEVENS POINT  MOSUNNY   76  50  40 W15G25    29.97F
6HR MIN TEMP:  64; 6HR MAX TEMP:  76;

WAUPACA        MOSUNNY   82  49  31 W13G18    29.95F HX  80
6HR MIN TEMP:  68; 6HR MAX TEMP:  82;

WAUTOMA        MOSUNNY   81  47  30 NW20G25   29.97F HX  80
6HR MIN TEMP:  67; 6HR MAX TEMP:  82;

WISC RAPIDS    PTSUNNY   80  47  31 NW16G30   29.99F
6HR MIN TEMP:  65; 6HR MAX TEMP:  81;

CAMP DOUGLAS   MOSUNNY   79  54  41 W17G28    30.00F
$$

WIZ011>013-019>022-031-037>040-048>050-311900-
NORTHEAST WISCONSIN

CITY           SKY/WX    TMP DP  RH WIND       PRES   REMARKS
ANTIGO         PTSUNNY   76  52  43 NW12G22   29.95S
SHAWANO        MOSUNNY   81  50  34 NW14G23   29.92S HX  80
6HR MIN TEMP:  67; 6HR MAX TEMP:  81;

OCONTO         MOSUNNY   81  53  37 W14G25    29.87F HX  80
6HR MIN TEMP:  65; 6HR MAX TEMP:  81;

STURGEON BAY   SUNNY     79  54  41 W15G21    29.90F
6HR MIN TEMP:  66; 6HR MAX TEMP:  79;

GREEN BAY      MOSUNNY   80  55  42 NW13G25   29.91S HX  80
6HR MIN TEMP:  67; 6HR MAX TEMP:  81;

MANITOWOC      PTSUNNY   79  55  43 MISG      29.91S
6HR MIN TEMP:  68; 6HR MAX TEMP:  81;

APPLETON       PTSUNNY   75  46  35 NW17G29   29.94F
CLINTONVILLE   MOSUNNY   79  46  31 W13G22    29.93S
OSHKOSH        MOSUNNY   79  52  38 NW20G26   29.94S
6HR MIN TEMP:  68; 6HR MAX TEMP:  80;

$$

WIZ032>034-041-042-053>061-311900-
SOUTHWEST WISCONSIN

CITY           SKY/WX    TMP DP  RH WIND       PRES   REMARKS
LA CROSSE      SUNNY     82  50  32 NW22G30   30.02F HX  81
6HR MIN TEMP:  69; 6HR MAX TEMP:  82;

SPARTA         MOSUNNY   80  45  28 NW20G26   30.03S
6HR MIN TEMP:  63; 6HR MAX TEMP:  80;

VIROQUA        SUNNY     77  51  39 W17G26    30.05F
6HR MIN TEMP:  63; 6HR MAX TEMP:  77;

BOSCOBEL       SUNNY     83  51  33 W14G24    30.03F HX  81
6HR MIN TEMP:  65; 6HR MAX TEMP:  84;

PRAIRIE DU CHI SUNNY     83  46  27 NW16G22   30.04F HX  81
6HR MIN TEMP:  66; 6HR MAX TEMP:  83;

PLATTEVILLE    SUNNY     81  55  40 W15G23    30.04F HX  81
6HR MIN TEMP:  66; 6HR MAX TEMP:  81;

$$

WIZ056-057-062-063-064-067-068-311900-
SOUTH CENTRAL WISCONSIN

CITY           SKY/WX    TMP DP  RH WIND       PRES   REMARKS
REEDSBURG      MOSUNNY   80  50  34 W15G24    30.00F HX  80
6HR MIN TEMP:  62; 6HR MAX TEMP:  81;

BARABOO/DELLS  MOSUNNY   81  43  25 W18G26    30.00F
6HR MIN TEMP:  65; 6HR MAX TEMP:  81;

LONE ROCK      SUNNY     82  49  31 NW16G28   30.01F HX  81
6HR MIN TEMP:  61; 6HR MAX TEMP:  82;

MINERAL POINT  SUNNY     81  46  30 W16G28    30.04F HX  80
MADISON        MOSUNNY   80  50  34 NW15G25   29.99F HX  80
6HR MIN TEMP:  68; 6HR MAX TEMP:  80;

MIDDLETON      SUNNY     81  43  25 NW14G23   30.00F HX  80
6HR MIN TEMP:  67; 6HR MAX TEMP:  82;

WATERTOWN      SUNNY     79  53  39 NW23      29.97F
6HR MIN TEMP:  65; 6HR MAX TEMP:  80;

MONROE         SUNNY     81  50  34 W20G25    30.02F HX  80
JANESVILLE     MOSUNNY   84  48  28 NW22G28   29.99F HX  82
$$

WIZ051-052-058>065-066-070>072-311900-
SOUTHEAST WISCONSIN

CITY           SKY/WX    TMP DP  RH WIND       PRES   REMARKS
MILWAUKEE      MOSUNNY   84  49  29 NW20G29   29.94F HX  82
6HR MIN TEMP:  70; 6HR MAX TEMP:  85;

WAUKESHA       MOSUNNY   81  46  30 W21G29    29.97F HX  80
MILWAUKEE/TIMM MOSUNNY   82  45  26 MISG      29.96S HX  80
RACINE         LGT RAIN  84  49  29 NW16G25   29.96F HX  82
6HR MIN TEMP:  69; 6HR MAX TEMP:  84; 6HR PCP: TRACE;

BURLINGTON     SUNNY     82  46  28 W21G32    29.97F HX  80
6HR MIN TEMP:  67; 6HR MAX TEMP:  82;

KENOSHA        SUNNY     83  55  38 W16G30    29.96F HX  82
6HR MIN TEMP:  68; 6HR MAX TEMP:  84;

FOND DU LAC    MOSUNNY   82  50  32 W23G32    29.95F HX  81
6HR MIN TEMP:  66; 6HR MAX TEMP:  82;

SHEBOYGAN      MOSUNNY   79  52  38 NW16G29   29.93S
6HR MIN TEMP:  67; 6HR MAX TEMP:  80;

WEST BEND      SUNNY     79  45  29 W20G29    29.95S
JUNEAU         MOSUNNY   77  51  39 W13G22    29.98S
6HR MIN TEMP:  63; 6HR MAX TEMP:  78;

$$

LSZ147-162-311900-
LAKE SUPERIOR

STATION/POSITION TIME  TEMP    WIND        PRES    WAVE
                       AIR SEA DIR/SP/G            HT/PER
                 (UTC) (F)     (DEG/KT/KT) (MB)    (FT/S)
W MID LAKE BUOY  1750   59 54  270/ 14/ 16 1011.8F   2/ 4
DEVILS ISLAND    1800   62     250/ 12/ 15 1013.1F
PORT WING        1700   70     260/ 12/ 17 1014.9S
SAXON HARBOR     1740   68                 1013.9R
$$

LMZ867-665-643>646-311900-
LAKE MICHIGAN

STATION/POSITION TIME  TEMP    WIND        PRES    WAVE
                       AIR SEA DIR/SP/G            HT/PER
                 (UTC) (F)     (DEG/KT/KT) (MB)    (FT/S)
CHAMBERS ISLAND  1700   78     260/  3/  9 1011.2F



USA.gov is the U.S. government's official web portal to all federal, state and local government web resources and services.